GLOBALSTAR M031 [-]

Last updated on Fri Dec 29 2023 00:02:56 GMT+0000 (Coordinated Universal Time)

1 25946U 99058D 23362.50637910 -.00000022 00000+0 69902-3 0 9997 2 25946 51.9935 159.2163 0002303 140.4214 323.5443 12.16000765 99494

Satellite not in orbit

GLOBALSTAR M031 [-]